Location: Aufkirchen
(47.9603°N, 11.3653°E)
Time: 11:47:27
(UTC+01:00)

deb Explorer IX - Pass Details

Date: 05 December 2020
Orbit: 536 x 1104 km, 38.8° (Epoch: 19 January)

Event Time Altitude Azimuth Distance (km) Brightness Sun altitude
Rises 16:54:29 0° 259° (W) 3,746 ? -5.5°
Reaches altitude 10° 16:57:32 10° 251° (WSW) 2,716 ? -5.9°
Maximum altitude 17:03:17 34° 189° (S) 1,424 ? -6.8°
Drops below altitude 10° 17:08:17 10° 126° (SE) 2,357 ? -7.5°
Sets 17:10:47 0° 117° (ESE) 3,190 ? -7.9°
